• In Netherlands
  • List of Countries
  • For 7 days
  • Water Temperature
  • Satellite Maps
  • Weather Map
  • Weather Widgets
  • user-avatar
    Login

    Hourly Weather Rechytsa

    Today, 29 July, Saturday

    Time Temperature Precipitation Wind Pressure Humidity
    00:00 +19°C° 1.9 mm 3 mps 742 mmHg 95%
    01:00 +19°C° 1.9 mm 3 mps 742 mmHg 96%
    02:00 +20°C° 0 mm 1 mps 741 mmHg 98%
    03:00 +19°C° 0.2 mm 2 mps 741 mmHg 98%
    04:00 +19°C° 0.2 mm 3 mps 741 mmHg 97%
    05:00 +19°C° 0.2 mm 3 mps 740 mmHg 97%
    06:00 +19°C° 0.3 mm 4 mps 740 mmHg 96%
    07:00 +20°C° 0.3 mm 4 mps 740 mmHg 94%
    08:00 +20°C° 0.3 mm 4 mps 740 mmHg 92%
    09:00 +21°C° 1.5 mm 5 mps 740 mmHg 91%
    10:00 +21°C° 1.5 mm 5 mps 740 mmHg 90%
    11:00 +21°C° 1.5 mm 5 mps 740 mmHg 89%
    12:00 +22°C° 0.7 mm 6 mps 740 mmHg 86%
    13:00 +22°C° 0.7 mm 7 mps 741 mmHg 84%
    14:00 +22°C° 0.7 mm 7 mps 741 mmHg 82%
    15:00 +22°C° 0.2 mm 7 mps 741 mmHg 81%
    16:00 +21°C° 0.2 mm 7 mps 741 mmHg 80%
    17:00 +21°C° 0.2 mm 7 mps 742 mmHg 80%
    18:00 +20°C° 0.2 mm 7 mps 742 mmHg 80%
    19:00 +20°C° 0.2 mm 7 mps 743 mmHg 80%
    20:00 +18°C° 0.2 mm 7 mps 743 mmHg 80%
    21:00 +19°C° 0 mm 6 mps 744 mmHg 80%
    22:00 +19°C° 0 mm 6 mps 744 mmHg 79%
    23:00 +17°C° 0 mm 6 mps 745 mmHg 78%

    Tomorrow, 30 July, Sunday

    Time Temperature Precipitation Wind Pressure Humidity
    00:00 +17°C° 0 mm 6 mps 745 mmHg 78%
    01:00 +17°C° 0 mm 6 mps 745 mmHg 78%
    02:00 +16°C° 0 mm 6 mps 746 mmHg 78%
    03:00 +16°C° 0 mm 6 mps 746 mmHg 79%
    04:00 +16°C° 0 mm 6 mps 746 mmHg 79%
    05:00 +16°C° 0 mm 6 mps 747 mmHg 80%
    06:00 +17°C° 0 mm 6 mps 747 mmHg 76%
    07:00 +17°C° 0 mm 7 mps 747 mmHg 72%
    08:00 +18°C° 0 mm 7 mps 748 mmHg 68%
    09:00 +21°C° 0 mm 7 mps 748 mmHg 63%
    10:00 +22°C° 0 mm 7 mps 748 mmHg 58%
    11:00 +23°C° 0 mm 7 mps 748 mmHg 53%
    12:00 +24°C° 0 mm 7 mps 748 mmHg 52%
    13:00 +24°C° 0 mm 7 mps 748 mmHg 51%
    14:00 +26°C° 0 mm 7 mps 748 mmHg 51%
    15:00 +26°C° 0 mm 6 mps 748 mmHg 54%
    16:00 +26°C° 0 mm 6 mps 749 mmHg 56%
    17:00 +26°C° 0 mm 5 mps 749 mmHg 59%
    18:00 +23°C° 0 mm 4 mps 749 mmHg 66%
    19:00 +22°C° 0 mm 4 mps 749 mmHg 73%
    20:00 +20°C° 0 mm 3 mps 749 mmHg 79%
    21:00 +20°C° 0 mm 3 mps 750 mmHg 83%
    22:00 +19°C° 0 mm 2 mps 750 mmHg 86%
    23:00 +18°C° 0 mm 2 mps 751 mmHg 90%

    Day after tomorrow, 31 July, Monday

    Time Temperature Precipitation Wind Pressure Humidity
    00:00 +18°C° 0 mm 2 mps 751 mmHg 92%
    01:00 +18°C° 0 mm 2 mps 751 mmHg 93%
    02:00 +17°C° 0 mm 2 mps 751 mmHg 95%
    03:00 +17°C° 0 mm 2 mps 751 mmHg 95%
    04:00 +17°C° 0 mm 2 mps 752 mmHg 95%
    05:00 +17°C° 0 mm 2 mps 752 mmHg 95%
    06:00 +18°C° 0 mm 2 mps 752 mmHg 88%
    07:00 +20°C° 0 mm 2 mps 752 mmHg 81%
    08:00 +23°C° 0 mm 2 mps 753 mmHg 73%
    09:00 +25°C° 0 mm 2 mps 753 mmHg 67%
    10:00 +26°C° 0 mm 2 mps 753 mmHg 60%
    11:00 +28°C° 0 mm 2 mps 753 mmHg 53%
    12:00 +28°C° 0 mm 2 mps 753 mmHg 50%
    13:00 +29°C° 0 mm 3 mps 753 mmHg 48%
    14:00 +30°C° 0 mm 3 mps 753 mmHg 45%
    15:00 +30°C° 0 mm 2 mps 753 mmHg 46%
    16:00 +30°C° 0 mm 2 mps 753 mmHg 48%
    17:00 +30°C° 0 mm 2 mps 753 mmHg 50%
    18:00 +28°C° 0 mm 1 mps 753 mmHg 56%
    19:00 +26°C° 0 mm 1 mps 753 mmHg 62%
    20:00 +22°C° 0 mm 0 mps 753 mmHg 68%
    21:00 +24°C° 0 mm 1 mps 753 mmHg 69%
    22:00 +23°C° 0 mm 1 mps 754 mmHg 70%
    23:00 +23°C° 0 mm 1 mps 754 mmHg 71%

    1 August, Tuesday

    Time Temperature Precipitation Wind Pressure Humidity
    00:00 +22°C° 0 mm 1 mps 754 mmHg 73%
    01:00 +21°C° 0 mm 2 mps 754 mmHg 74%
    02:00 +21°C° 0 mm 2 mps 754 mmHg 76%
    03:00 +21°C° 0 mm 2 mps 754 mmHg 77%
    04:00 +21°C° 0 mm 2 mps 754 mmHg 79%
    05:00 +20°C° 0 mm 2 mps 755 mmHg 81%
    06:00 +23°C° 0 mm 2 mps 755 mmHg 77%
    07:00 +25°C° 0 mm 2 mps 755 mmHg 72%
    08:00 +27°C° 0 mm 2 mps 755 mmHg 68%
    09:00 +29°C° 0 mm 2 mps 755 mmHg 63%
    10:00 +30°C° 0 mm 3 mps 756 mmHg 59%
    11:00 +33°C° 0 mm 3 mps 756 mmHg 54%
    12:00 +34°C° 0 mm 3 mps 756 mmHg 51%
    13:00 +34°C° 0 mm 3 mps 756 mmHg 48%
    14:00 +35°C° 0 mm 3 mps 756 mmHg 45%
    15:00 +35°C° 0 mm 3 mps 756 mmHg 47%
    16:00 +34°C° 0 mm 3 mps 756 mmHg 48%
    17:00 +34°C° 0 mm 2 mps 756 mmHg 50%
    18:00 +31°C° 0 mm 2 mps 756 mmHg 56%
    19:00 +29°C° 0 mm 2 mps 756 mmHg 62%
    20:00 +26°C° 0 mm 2 mps 756 mmHg 68%
    21:00 +25°C° 0 mm 2 mps 756 mmHg 73%
    22:00 +24°C° 0 mm 2 mps 757 mmHg 77%
    23:00 +23°C° 0 mm 2 mps 757 mmHg 81%

    2 August, Wednesday

    Time Temperature Precipitation Wind Pressure Humidity
    00:00 +23°C° 0 mm 2 mps 757 mmHg 84%
    01:00 +21°C° 0 mm 2 mps 757 mmHg 87%
    02:00 +21°C° 0 mm 2 mps 757 mmHg 90%
    03:00 +21°C° 0 mm 2 mps 757 mmHg 91%
    04:00 +20°C° 0 mm 2 mps 757 mmHg 92%
    05:00 +20°C° 0 mm 2 mps 757 mmHg 92%
    06:00 +23°C° 0 mm 2 mps 757 mmHg 86%
    07:00 +25°C° 0 mm 2 mps 757 mmHg 79%
    08:00 +27°C° 0 mm 2 mps 757 mmHg 72%
    09:00 +28°C° 0 mm 2 mps 757 mmHg 66%
    10:00 +30°C° 0 mm 3 mps 756 mmHg 60%
    11:00 +33°C° 0 mm 3 mps 756 mmHg 55%
    12:00 +33°C° 0 mm 3 mps 756 mmHg 52%
    13:00 +34°C° 0 mm 3 mps 755 mmHg 49%
    14:00 +35°C° 0 mm 3 mps 755 mmHg 46%
    15:00 +35°C° 0 mm 3 mps 755 mmHg 49%
    16:00 +34°C° 0 mm 2 mps 754 mmHg 51%
    17:00 +34°C° 0 mm 2 mps 754 mmHg 53%
    18:00 +31°C° 0 mm 3 mps 754 mmHg 58%
    19:00 +30°C° 0 mm 3 mps 754 mmHg 62%
    20:00 +28°C° 0 mm 3 mps 754 mmHg 67%
    21:00 +27°C° 0 mm 3 mps 753 mmHg 68%
    22:00 +27°C° 0 mm 3 mps 753 mmHg 69%
    23:00 +26°C° 0 mm 3 mps 753 mmHg 70%

    3 August, Thursday

    Time Temperature Precipitation Wind Pressure Humidity
    00:00 +25°C° 0 mm 3 mps 753 mmHg 71%
    01:00 +25°C° 0 mm 3 mps 753 mmHg 72%
    02:00 +25°C° 0 mm 3 mps 753 mmHg 74%
    03:00 +24°C° 0 mm 3 mps 752 mmHg 75%
    04:00 +24°C° 0 mm 3 mps 752 mmHg 76%
    05:00 +24°C° 0 mm 3 mps 752 mmHg 77%
    06:00 +25°C° 0 mm 3 mps 752 mmHg 73%
    07:00 +26°C° 0 mm 3 mps 752 mmHg 70%
    08:00 +28°C° 0 mm 3 mps 752 mmHg 66%
    09:00 +29°C° 0 mm 3 mps 752 mmHg 63%
    10:00 +30°C° 0 mm 3 mps 752 mmHg 60%
    11:00 +31°C° 0 mm 3 mps 752 mmHg 57%
    12:00 +33°C° 0 mm 3 mps 752 mmHg 54%
    13:00 +33°C° 0 mm 3 mps 752 mmHg 52%
    14:00 +34°C° 0 mm 4 mps 752 mmHg 50%
    15:00 +33°C° 0 mm 4 mps 751 mmHg 52%
    16:00 +31°C° 0 mm 3 mps 751 mmHg 53%
    17:00 +30°C° 0 mm 3 mps 751 mmHg 55%
    18:00 +28°C° 0 mm 3 mps 751 mmHg 60%
    19:00 +26°C° 0 mm 3 mps 751 mmHg 65%
    20:00 +24°C° 0 mm 2 mps 751 mmHg 70%
    21:00 +23°C° 0 mm 2 mps 751 mmHg 72%
    22:00 +21°C° 0 mm 2 mps 751 mmHg 75%
    23:00 +21°C° 0 mm 1 mps 751 mmHg 78%
    Show more